| time (UTC) | temp F | wind direction | speed MPH | gust MPH | rain 1hr in | rain 24hr in | rain mn in | humidity % | barometer mb |
| 20260509164535 | 90 | 360 | 2.0 | 0.0 | 0.00 | 0.00 | 0.00 | 10 | 1003.6 |
| 20260509164004 | 89 | 360 | 2.0 | 0.0 | 0.00 | 0.00 | 0.00 | 10 | 1003.6 |
| 20260509163542 | 89 | 360 | 2.0 | 0.0 | 0.00 | 0.00 | 0.00 | 10 | 1003.6 |
| 20260509163027 | 89 | 360 | 2.0 | 0.0 | 0.00 | 0.00 | 0.00 | 10 | 1003.6 |
| 20260509162605 | 89 | 38 | 2.0 | 0.0 | 0.00 | 0.00 | 0.00 | 10 | 1003.6 |
| 20260509162043 | 88 | 360 | 3.0 | 0.0 | 0.00 | 0.00 | 0.00 | 9 | 1003.6 |
| 20260509161519 | 89 | 360 | 3.0 | 0.0 | 0.00 | 0.00 | 0.00 | 10 | 1003.6 |
| 20260509161102 | 88 | 360 | 3.0 | 0.0 | 0.00 | 0.00 | 0.00 | 10 | 1003.6 |
| 20260509160541 | 88 | 360 | 4.0 | 0.0 | 0.00 | 0.00 | 0.00 | 10 | 1003.5 |
| 20260509160016 | 88 | 360 | 5.0 | 0.0 | 0.00 | 0.00 | 0.00 | 9 | 1003.6 |
| 20260509155603 | 88 | 360 | 6.0 | 0.0 | 0.00 | 0.00 | 0.00 | 10 | 1003.6 |
| 20260509155037 | 87 | 360 | 6.0 | 0.0 | 0.00 | 0.00 | 0.00 | 10 | 1003.5 |
| 20260509154513 | 87 | 360 | 6.0 | 0.0 | 0.00 | 0.00 | 0.00 | 10 | 1003.7 |
| 20260509154055 | 87 | 360 | 6.0 | 0.0 | 0.00 | 0.00 | 0.00 | 10 | 1003.7 |
| 20260509153532 | 86 | 360 | 7.0 | 0.0 | 0.00 | 0.00 | 0.00 | 10 | 1003.7 |
| 20260509153009 | 86 | 360 | 7.0 | 0.0 | 0.00 | 0.00 | 0.00 | 10 | 1003.8 |
| 20260509152550 | 86 | 360 | 7.0 | 0.0 | 0.00 | 0.00 | 0.00 | 10 | 1003.8 |
| 20260509152028 | 86 | 360 | 8.0 | 0.0 | 0.00 | 0.00 | 0.00 | 10 | 1003.8 |
| 20260509151505 | 85 | 360 | 8.0 | 0.0 | 0.00 | 0.00 | 0.00 | 10 | 1003.8 |
| 20260509151048 | 85 | 360 | 8.0 | 0.0 | 0.00 | 0.00 | 0.00 | 11 | 1003.6 |
| 20260509150524 | 85 | 360 | 7.0 | 0.0 | 0.00 | 0.00 | 0.00 | 11 | 1003.7 |
| 20260509150000 | 85 | 360 | 6.0 | 0.0 | 0.00 | 0.00 | 0.00 | 11 | 1003.4 |
| 20260509145544 | 85 | 360 | 6.0 | 0.0 | 0.00 | 0.00 | 0.00 | 11 | 1003.3 |
| 20260509145020 | 84 | 360 | 6.0 | 0.0 | 0.00 | 0.00 | 0.00 | 11 | 1003.3 |
| 20260509144602 | 84 | 360 | 5.0 | 0.0 | 0.00 | 0.00 | 0.00 | 11 | 1003.4 |
| 20260509144037 | 83 | 360 | 4.0 | 0.0 | 0.00 | 0.00 | 0.00 | 12 | 1003.4 |
| 20260509143515 | 83 | 360 | 3.0 | 0.0 | 0.00 | 0.00 | 0.00 | 12 | 1003.4 |
| 20260509143057 | 82 | 360 | 2.0 | 0.0 | 0.00 | 0.00 | 0.00 | 13 | 1003.6 |
| 20260509142534 | 80 | 360 | 1.0 | 0.0 | 0.00 | 0.00 | 0.00 | 14 | 1003.7 |
| 20260509142011 | 79 | 360 | 1.0 | 0.0 | 0.00 | 0.00 | 0.00 | 16 | 1003.6 |
| 20260509141557 | 78 | 360 | 1.0 | 0.0 | 0.00 | 0.00 | 0.00 | 16 | 1003.8 |
| 20260509141034 | 77 | 360 | 1.0 | 0.0 | 0.00 | 0.00 | 0.00 | 17 | 1003.9 |
| 20260509140512 | 77 | 360 | 0.0 | 0.0 | 0.00 | 0.00 | 0.00 | 17 | 1003.8 |
| 20260509135529 | 77 | 360 | 0.0 | 0.0 | 0.00 | 0.00 | 0.00 | 16 | 1003.4 |
| 20260509135010 | 77 | 360 | 0.0 | 0.0 | 0.00 | 0.00 | 0.00 | 15 | 1003.2 |
| 20260509134551 | 76 | 360 | 0.0 | 0.0 | 0.00 | 0.00 | 0.00 | 19 | 1003.2 |
| 20260509134026 | 76 | 360 | 0.0 | 0.0 | 0.00 | 0.00 | 0.00 | 19 | 1003.2 |
| 20260509133504 | 76 | 360 | 1.0 | 0.0 | 0.00 | 0.00 | 0.00 | 17 | 1003.0 |
| 20260509133050 | 76 | 360 | 1.0 | 0.0 | 0.00 | 0.00 | 0.00 | 17 | 1003.0 |
| 20260509132527 | 77 | 110 | 1.0 | 0.0 | 0.00 | 0.00 | 0.00 | 17 | 1002.9 |
| 20260509132012 | 76 | 108 | 1.0 | 0.0 | 0.00 | 0.00 | 0.00 | 17 | 1002.9 |
| 20260509131553 | 76 | 351 | 1.0 | 0.0 | 0.00 | 0.00 | 0.00 | 15 | 1002.8 |
| 20260509131034 | 75 | 360 | 3.0 | 0.0 | 0.00 | 0.00 | 0.00 | 17 | 1002.9 |
| 20260509130512 | 75 | 360 | 5.0 | 0.0 | 0.00 | 0.00 | 0.00 | 16 | 1002.9 |
| 20260509125544 | 76 | 360 | 5.0 | 0.0 | 0.00 | 0.00 | 0.00 | 13 | 1002.5 |
| 20260509125023 | 77 | 360 | 6.0 | 0.0 | 0.00 | 0.00 | 0.00 | 12 | 1002.1 |
| 20260509124624 | 78 | 360 | 7.0 | 0.0 | 0.00 | 0.00 | 0.00 | 12 | 1002.0 |
| 20260509124048 | 78 | 360 | 7.0 | 0.0 | 0.00 | 0.00 | 0.00 | 12 | 1002.1 |
| 20260509123527 | 77 | 360 | 6.0 | 0.0 | 0.00 | 0.00 | 0.00 | 13 | 1002.0 |
| 20260509123016 | 77 | 360 | 4.0 | 0.0 | 0.00 | 0.00 | 0.00 | 13 | 1001.9 |
| 20260509122551 | 77 | 360 | 3.0 | 0.0 | 0.00 | 0.00 | 0.00 | 13 | 1001.8 |
| 20260509122029 | 76 | 360 | 4.0 | 0.0 | 0.00 | 0.00 | 0.00 | 14 | 1001.8 |
| 20260509121515 | 76 | 360 | 4.0 | 0.0 | 0.00 | 0.00 | 0.00 | 14 | 1001.8 |
| 20260509121059 | 76 | 360 | 4.0 | 0.0 | 0.00 | 0.00 | 0.00 | 14 | 1001.8 |
| 20260509120537 | 76 | 360 | 5.0 | 0.0 | 0.00 | 0.00 | 0.00 | 15 | 1001.7 |
| 20260509120014 | 75 | 360 | 5.0 | 0.0 | 0.00 | 0.00 | 0.00 | 16 | 1001.6 |
| 20260509115600 | 73 | 360 | 6.0 | 0.0 | 0.00 | 0.00 | 0.00 | 16 | 1001.6 |
| 20260509115038 | 74 | 360 | 6.0 | 0.0 | 0.00 | 0.00 | 0.00 | 16 | 1001.6 |
| 20260509114523 | 74 | 360 | 7.0 | 0.0 | 0.00 | 0.00 | 0.00 | 15 | 1001.6 |
| 20260509114007 | 74 | 360 | 7.0 | 0.0 | 0.00 | 0.00 | 0.00 | 15 | 1001.4 |
| 20260509113552 | 74 | 360 | 7.0 | 0.0 | 0.00 | 0.00 | 0.00 | 15 | 1001.5 |
| 20260509113028 | 74 | 360 | 7.0 | 0.0 | 0.00 | 0.00 | 0.00 | 16 | 1001.4 |
| 20260509112507 | 74 | 360 | 6.0 | 0.0 | 0.00 | 0.00 | 0.00 | 16 | 1001.5 |
| 20260509112049 | 74 | 360 | 6.0 | 0.0 | 0.00 | 0.00 | 0.00 | 15 | 1001.4 |
| 20260509111529 | 75 | 360 | 7.0 | 0.0 | 0.00 | 0.00 | 0.00 | 15 | 1001.4 |
| 20260509111013 | 75 | 360 | 7.0 | 0.0 | 0.00 | 0.00 | 0.00 | 15 | 1001.4 |
| 20260509110554 | 74 | 360 | 7.0 | 0.0 | 0.00 | 0.00 | 0.00 | 15 | 1001.4 |
| 20260509110035 | 75 | 360 | 7.0 | 0.0 | 0.00 | 0.00 | 0.00 | 15 | 1001.4 |
| 20260509105511 | 75 | 360 | 6.0 | 0.0 | 0.00 | 0.00 | 0.00 | 15 | 1001.2 |
| 20260509105052 | 75 | 360 | 6.0 | 0.0 | 0.00 | 0.00 | 0.00 | 15 | 1001.2 |
| 20260509104534 | 76 | 360 | 6.0 | 0.0 | 0.00 | 0.00 | 0.00 | 15 | 1001.1 |
| 20260509104009 | 75 | 360 | 6.0 | 0.0 | 0.00 | 0.00 | 0.00 | 15 | 1001.1 |
| 20260509103555 | 75 | 360 | 5.0 | 0.0 | 0.00 | 0.00 | 0.00 | 15 | 1001.2 |
| 20260509103036 | 76 | 360 | 4.0 | 0.0 | 0.00 | 0.00 | 0.00 | 15 | 1001.1 |
| 20260509102518 | 76 | 360 | 4.0 | 0.0 | 0.00 | 0.00 | 0.00 | 14 | 1001.0 |
| 20260509102105 | 77 | 360 | 4.0 | 0.0 | 0.00 | 0.00 | 0.00 | 14 | 1000.9 |
| 20260509101553 | 77 | 360 | 4.0 | 0.0 | 0.00 | 0.00 | 0.00 | 15 | 1001.1 |
| 20260509101034 | 77 | 360 | 4.0 | 0.0 | 0.00 | 0.00 | 0.00 | 15 | 1000.9 |
| 20260509100511 | 76 | 360 | 4.0 | 0.0 | 0.00 | 0.00 | 0.00 | 15 | 1001.0 |
| 20260509100055 | 76 | 360 | 4.0 | 0.0 | 0.00 | 0.00 | 0.00 | 15 | 1001.1 |
| 20260509095536 | 76 | 360 | 4.0 | 0.0 | 0.00 | 0.00 | 0.00 | 15 | 1001.1 |
| 20260509095021 | 75 | 360 | 4.0 | 0.0 | 0.00 | 0.00 | 0.00 | 15 | 1001.0 |
| 20260509094607 | 75 | 360 | 4.0 | 0.0 | 0.00 | 0.00 | 0.00 | 16 | 1001.0 |
| 20260509094040 | 76 | 360 | 5.0 | 0.0 | 0.00 | 0.00 | 0.00 | 15 | 1000.9 |
| 20260509093518 | 77 | 360 | 5.0 | 0.0 | 0.00 | 0.00 | 0.00 | 15 | 1000.8 |
| 20260509093104 | 78 | 360 | 5.0 | 0.0 | 0.00 | 0.00 | 0.00 | 14 | 1000.8 |
| 20260509092549 | 78 | 360 | 5.0 | 0.0 | 0.00 | 0.00 | 0.00 | 14 | 1000.8 |
| 20260509092028 | 78 | 360 | 5.0 | 0.0 | 0.00 | 0.00 | 0.00 | 14 | 1000.8 |
| 20260509091513 | 78 | 360 | 5.0 | 0.0 | 0.00 | 0.00 | 0.00 | 14 | 1000.9 |
| 20260509091057 | 78 | 360 | 5.0 | 0.0 | 0.00 | 0.00 | 0.00 | 14 | 1000.9 |
| 20260509090544 | 78 | 360 | 5.0 | 0.0 | 0.00 | 0.00 | 0.00 | 14 | 1000.8 |
| 20260509090024 | 77 | 360 | 4.0 | 0.0 | 0.00 | 0.00 | 0.00 | 14 | 1001.0 |
| 20260509085510 | 76 | 360 | 4.0 | 0.0 | 0.00 | 0.00 | 0.00 | 15 | 1001.1 |
| 20260509085056 | 76 | 360 | 5.0 | 0.0 | 0.00 | 0.00 | 0.00 | 14 | 1001.1 |
| 20260509084545 | 77 | 360 | 5.0 | 0.0 | 0.00 | 0.00 | 0.00 | 14 | 1001.1 |
| 20260509084016 | 77 | 360 | 5.0 | 0.0 | 0.00 | 0.00 | 0.00 | 14 | 1000.9 |
| 20260509083555 | 78 | 360 | 4.0 | 0.0 | 0.00 | 0.00 | 0.00 | 14 | 1000.9 |
| 20260509083037 | 78 | 360 | 4.0 | 0.0 | 0.00 | 0.00 | 0.00 | 14 | 1000.9 |
| 20260509082517 | 78 | 360 | 4.0 | 0.0 | 0.00 | 0.00 | 0.00 | 14 | 1000.9 |
| 20260509082102 | 78 | 360 | 3.0 | 0.0 | 0.00 | 0.00 | 0.00 | 14 | 1000.9 |
| 20260509081538 | 78 | 360 | 3.0 | 0.0 | 0.00 | 0.00 | 0.00 | 15 | 1000.9 |
| 20260509081016 | 78 | 360 | 3.0 | 0.0 | 0.00 | 0.00 | 0.00 | 15 | 1000.9 |
| 20260509080601 | 78 | 360 | 4.0 | 0.0 | 0.00 | 0.00 | 0.00 | 14 | 1001.0 |
| 20260509080043 | 78 | 360 | 4.0 | 0.0 | 0.00 | 0.00 | 0.00 | 14 | 1000.9 |
| 20260509075515 | 79 | 360 | 4.0 | 0.0 | 0.00 | 0.00 | 0.00 | 14 | 1000.8 |
| 20260509075100 | 79 | 360 | 4.0 | 0.0 | 0.00 | 0.00 | 0.00 | 14 | 1000.7 |
| 20260509074551 | 79 | 360 | 4.0 | 0.0 | 0.00 | 0.00 | 0.00 | 14 | 1000.7 |
| 20260509074021 | 79 | 360 | 5.0 | 0.0 | 0.00 | 0.00 | 0.00 | 14 | 1000.7 |
| 20260509073605 | 80 | 360 | 5.0 | 0.0 | 0.00 | 0.00 | 0.00 | 14 | 1000.7 |
| 20260509073113 | 80 | 360 | 5.0 | 0.0 | 0.00 | 0.00 | 0.00 | 14 | 1000.6 |
| 20260509072525 | 79 | 360 | 5.0 | 0.0 | 0.00 | 0.00 | 0.00 | 14 | 1000.7 |
| 20260509072003 | 80 | 360 | 5.0 | 0.0 | 0.00 | 0.00 | 0.00 | 14 | 1000.7 |
| 20260509071549 | 80 | 360 | 4.0 | 0.0 | 0.00 | 0.00 | 0.00 | 14 | 1000.7 |
| 20260509071025 | 79 | 360 | 4.0 | 0.0 | 0.00 | 0.00 | 0.00 | 15 | 1000.6 |
| 20260509070504 | 78 | 360 | 4.0 | 0.0 | 0.00 | 0.00 | 0.00 | 15 | 1000.7 |
| 20260509070051 | 78 | 360 | 3.0 | 0.0 | 0.00 | 0.00 | 0.00 | 15 | 1000.7 |
| 20260509065528 | 78 | 360 | 3.0 | 0.0 | 0.00 | 0.00 | 0.00 | 15 | 1000.9 |
| 20260509065007 | 79 | 360 | 3.0 | 0.0 | 0.00 | 0.00 | 0.00 | 14 | 1000.9 |
| 20260509064550 | 79 | 360 | 3.0 | 0.0 | 0.00 | 0.00 | 0.00 | 14 | 1000.9 |
| 20260509064034 | 79 | 360 | 3.0 | 0.0 | 0.00 | 0.00 | 0.00 | 15 | 1000.8 |
| 20260509063517 | 78 | 360 | 3.0 | 0.0 | 0.00 | 0.00 | 0.00 | 15 | 1000.8 |
| 20260509063009 | 78 | 360 | 3.0 | 0.0 | 0.00 | 0.00 | 0.00 | 15 | 1000.8 |
| 20260509062553 | 79 | 360 | 4.0 | 0.0 | 0.00 | 0.00 | 0.00 | 14 | 1000.8 |
| 20260509062037 | 79 | 360 | 3.0 | 0.0 | 0.00 | 0.00 | 0.00 | 14 | 1000.8 |
| 20260509061522 | 79 | 360 | 3.0 | 0.0 | 0.00 | 0.00 | 0.00 | 14 | 1000.7 |
| 20260509061008 | 80 | 360 | 4.0 | 0.0 | 0.00 | 0.00 | 0.00 | 14 | 1000.7 |
| 20260509060556 | 80 | 360 | 4.0 | 0.0 | 0.00 | 0.00 | 0.00 | 14 | 1000.7 |
| 20260509060047 | 80 | 360 | 3.0 | 0.0 | 0.00 | 0.00 | 0.00 | 14 | 1000.6 |
| 20260509055523 | 80 | 360 | 3.0 | 0.0 | 0.00 | 0.00 | 0.00 | 13 | 1000.7 |
| 20260509055002 | 80 | 360 | 4.0 | 0.0 | 0.00 | 0.00 | 0.00 | 13 | 1000.7 |
| 20260509054607 | 81 | 360 | 3.0 | 0.0 | 0.00 | 0.00 | 0.00 | 13 | 1000.8 |
| 20260509054028 | 81 | 360 | 4.0 | 0.0 | 0.00 | 0.00 | 0.00 | 13 | 1000.8 |
| 20260509053507 | 81 | 360 | 4.0 | 0.0 | 0.00 | 0.00 | 0.00 | 13 | 1000.8 |
| 20260509053101 | 81 | 360 | 4.0 | 0.0 | 0.00 | 0.00 | 0.00 | 13 | 1000.8 |
| 20260509052538 | 81 | 360 | 4.0 | 0.0 | 0.00 | 0.00 | 0.00 | 12 | 1000.8 |
| 20260509052019 | 82 | 360 | 4.0 | 0.0 | 0.00 | 0.00 | 0.00 | 12 | 1000.6 |
| 20260509051501 | 83 | 360 | 4.0 | 0.0 | 0.00 | 0.00 | 0.00 | 12 | 1000.6 |
| 20260509051045 | 83 | 360 | 4.0 | 0.0 | 0.00 | 0.00 | 0.00 | 12 | 1000.6 |
| 20260509050524 | 83 | 360 | 4.0 | 0.0 | 0.00 | 0.00 | 0.00 | 12 | 1000.6 |
| 20260509050003 | 83 | 360 | 4.0 | 0.0 | 0.00 | 0.00 | 0.00 | 12 | 1000.8 |
| 20260509045548 | 82 | 360 | 4.0 | 0.0 | 0.00 | 0.00 | 0.00 | 12 | 1000.8 |
| 20260509045027 | 82 | 360 | 4.0 | 0.0 | 0.00 | 0.00 | 0.00 | 12 | 1000.8 |
| 20260509044506 | 82 | 360 | 3.0 | 0.0 | 0.00 | 0.00 | 0.00 | 12 | 1000.8 |
| 20260509044054 | 83 | 360 | 4.0 | 0.0 | 0.00 | 0.00 | 0.00 | 12 | 1000.8 |
| 20260509043532 | 83 | 360 | 4.0 | 0.0 | 0.00 | 0.00 | 0.00 | 11 | 1000.8 |
| 20260509043022 | 83 | 360 | 3.0 | 0.0 | 0.00 | 0.00 | 0.00 | 11 | 1000.8 |
| 20260509042600 | 83 | 360 | 4.0 | 0.0 | 0.00 | 0.00 | 0.00 | 11 | 1000.7 |
| 20260509042040 | 83 | 360 | 4.0 | 0.0 | 0.00 | 0.00 | 0.00 | 11 | 1000.6 |
| 20260509041525 | 83 | 360 | 3.0 | 0.0 | 0.00 | 0.00 | 0.00 | 11 | 1000.6 |
| 20260509041005 | 82 | 360 | 3.0 | 0.0 | 0.00 | 0.00 | 0.00 | 11 | 1000.5 |
| 20260509040547 | 83 | 360 | 3.0 | 0.0 | 0.00 | 0.00 | 0.00 | 10 | 1000.5 |
| 20260509040025 | 83 | 360 | 3.0 | 0.0 | 0.00 | 0.00 | 0.00 | 9 | 1000.3 |
| 20260509035510 | 83 | 360 | 3.0 | 0.0 | 0.00 | 0.00 | 0.00 | 9 | 1000.8 |
| 20260509035054 | 84 | 360 | 3.0 | 0.0 | 0.00 | 0.00 | 0.00 | 9 | 1000.7 |
| 20260509034542 | 84 | 360 | 3.0 | 0.0 | 0.00 | 0.00 | 0.00 | 9 | 1000.5 |
| 20260509034015 | 86 | 360 | 3.0 | 0.0 | 0.00 | 0.00 | 0.00 | 8 | 1000.3 |
| 20260509033557 | 87 | 360 | 3.0 | 0.0 | 0.00 | 0.00 | 0.00 | 8 | 1000.2 |
| 20260509033036 | 88 | 360 | 3.0 | 0.0 | 0.00 | 0.00 | 0.00 | 8 | 1000.0 |
| 20260509032520 | 88 | 360 | 3.0 | 0.0 | 0.00 | 0.00 | 0.00 | 8 | 1000.0 |
| 20260509032058 | 89 | 360 | 2.0 | 0.0 | 0.00 | 0.00 | 0.00 | 8 | 999.9 |
| 20260509031539 | 90 | 360 | 2.0 | 0.0 | 0.00 | 0.00 | 0.00 | 7 | 1000.0 |
| 20260509031018 | 90 | 360 | 2.0 | 0.0 | 0.00 | 0.00 | 0.00 | 7 | 999.9 |
| 20260509030603 | 90 | 360 | 2.0 | 0.0 | 0.00 | 0.00 | 0.00 | 7 | 999.9 |
| 20260509030047 | 90 | 360 | 3.0 | 0.0 | 0.00 | 0.00 | 0.00 | 7 | 999.7 |
| 20260509025529 | 90 | 360 | 4.0 | 0.0 | 0.00 | 0.00 | 0.00 | 7 | 1000.0 |
| 20260509025012 | 90 | 360 | 4.0 | 0.0 | 0.00 | 0.00 | 0.00 | 7 | 999.8 |
| 20260509024559 | 90 | 360 | 4.0 | 0.0 | 0.00 | 0.00 | 0.00 | 6 | 999.7 |
| 20260509024041 | 91 | 360 | 5.0 | 0.0 | 0.00 | 0.00 | 0.00 | 6 | 999.7 |
| 20260509023520 | 92 | 360 | 5.0 | 0.0 | 0.00 | 0.00 | 0.00 | 6 | 999.5 |
| 20260509023102 | 92 | 360 | 4.0 | 0.0 | 0.00 | 0.00 | 0.00 | 6 | 999.5 |
| 20260509022544 | 92 | 360 | 4.0 | 0.0 | 0.00 | 0.00 | 0.00 | 6 | 999.4 |
| 20260509022029 | 93 | 360 | 4.0 | 0.0 | 0.00 | 0.00 | 0.00 | 6 | 999.3 |
| 20260509021511 | 93 | 360 | 5.0 | 0.0 | 0.00 | 0.00 | 0.00 | 7 | 999.3 |
| 20260509021059 | 93 | 360 | 6.0 | 0.0 | 0.00 | 0.00 | 0.00 | 7 | 999.2 |
| 20260509020542 | 93 | 310 | 5.0 | 0.0 | 0.00 | 0.00 | 0.00 | 7 | 999.2 |
| 20260509020024 | 94 | 308 | 5.0 | 0.0 | 0.00 | 0.00 | 0.00 | 7 | 999.2 |
| 20260509015508 | 94 | 15 | 4.0 | 0.0 | 0.00 | 0.00 | 0.00 | 6 | 999.3 |
| 20260509015056 | 94 | 324 | 4.0 | 0.0 | 0.00 | 0.00 | 0.00 | 6 | 999.4 |
| 20260509014535 | 95 | 311 | 5.0 | 0.0 | 0.00 | 0.00 | 0.00 | 6 | 999.3 |
| 20260509014014 | 95 | 305 | 5.0 | 0.0 | 0.00 | 0.00 | 0.00 | 5 | 999.2 |
| 20260509013556 | 95 | 317 | 4.0 | 0.0 | 0.00 | 0.00 | 0.00 | 5 | 999.2 |
| 20260509013044 | 96 | 304 | 4.0 | 0.0 | 0.00 | 0.00 | 0.00 | 6 | 999.2 |
| 20260509012520 | 96 | 57 | 4.0 | 0.0 | 0.00 | 0.00 | 0.00 | 6 | 999.2 |
| 20260509012106 | 96 | 283 | 5.0 | 0.0 | 0.00 | 0.00 | 0.00 | 6 | 999.3 |
| 20260509011555 | 96 | 342 | 3.0 | 0.0 | 0.00 | 0.00 | 0.00 | 6 | 999.2 |
| 20260509011021 | 96 | 313 | 3.0 | 0.0 | 0.00 | 0.00 | 0.00 | 6 | 999.3 |
| 20260509010503 | 96 | 336 | 3.0 | 0.0 | 0.00 | 0.00 | 0.00 | 6 | 999.3 |
| 20260509010051 | 96 | 300 | 2.0 | 0.0 | 0.00 | 0.00 | 0.00 | 6 | 999.4 |
| 20260509005532 | 96 | 312 | 4.0 | 0.0 | 0.00 | 0.00 | 0.00 | 6 | 999.5 |
| 20260509005010 | 97 | 294 | 4.0 | 0.0 | 0.00 | 0.00 | 0.00 | 5 | 999.7 |
| 20260509004608 | 97 | 332 | 3.0 | 0.0 | 0.00 | 0.00 | 0.00 | 6 | 999.6 |
| 20260509004035 | 97 | 312 | 2.0 | 0.0 | 0.00 | 0.00 | 0.00 | 6 | 999.5 |
| 20260509003514 | 97 | 300 | 1.0 | 0.0 | 0.00 | 0.00 | 0.00 | 5 | 999.6 |
| 20260509003058 | 97 | 292 | 2.0 | 0.0 | 0.00 | 0.00 | 0.00 | 6 | 999.7 |
| 20260509002535 | 97 | 322 | 2.0 | 0.0 | 0.00 | 0.00 | 0.00 | 6 | 999.7 |
| 20260509002023 | 97 | 306 | 4.0 | 0.0 | 0.00 | 0.00 | 0.00 | 6 | 999.6 |
| 20260509001502 | 98 | 331 | 4.0 | 0.0 | 0.00 | 0.00 | 0.00 | 5 | 999.7 |
| 20260509001050 | 98 | 227 | 4.0 | 0.0 | 0.00 | 0.00 | 0.00 | 5 | 999.6 |
| 20260509000531 | 97 | 265 | 6.0 | 0.0 | 0.00 | 0.00 | 0.00 | 5 | 999.6 |
| 20260509000009 | 97 | 297 | 6.0 | 0.0 | 0.00 | 0.00 | 0.00 | 5 | 999.7 |
| 20260508235558 | 97 | 291 | 4.0 | 0.0 | 0.00 | 0.00 | 0.00 | 5 | 999.9 |
| 20260508235041 | 98 | 333 | 2.0 | 0.0 | 0.00 | 0.00 | 0.00 | 6 | 1000.0 |
| 20260508234518 | 97 | 325 | 4.0 | 0.0 | 0.00 | 0.00 | 0.00 | 6 | 999.9 |
| 20260508234103 | 97 | 296 | 5.0 | 0.0 | 0.00 | 0.00 | 0.00 | 5 | 1000.1 |
| 20260508233542 | 97 | 315 | 5.0 | 0.0 | 0.00 | 0.00 | 0.00 | 5 | 1000.1 |
| 20260508233021 | 97 | 258 | 5.0 | 0.0 | 0.00 | 0.00 | 0.00 | 5 | 1000.1 |
| 20260508232502 | 97 | 293 | 6.0 | 0.0 | 0.00 | 0.00 | 0.00 | 6 | 1000.1 |
| 20260508232044 | 98 | 312 | 5.0 | 0.0 | 0.00 | 0.00 | 0.00 | 6 | 1000.2 |
| 20260508231523 | 98 | 242 | 3.0 | 0.0 | 0.00 | 0.00 | 0.00 | 6 | 1000.2 |
| 20260508231008 | 97 | 257 | 4.0 | 0.0 | 0.00 | 0.00 | 0.00 | 6 | 1000.2 |
| 20260508230554 | 97 | 360 | 4.0 | 0.0 | 0.00 | 0.00 | 0.00 | 6 | 1000.3 |
| 20260508230039 | 98 | 321 | 5.0 | 0.0 | 0.00 | 0.00 | 0.00 | 6 | 1000.1 |
| 20260508225522 | 98 | 214 | 5.0 | 0.0 | 0.00 | 0.00 | 0.00 | 6 | 1000.1 |
| 20260508225102 | 97 | 290 | 3.0 | 0.0 | 0.00 | 0.00 | 0.00 | 6 | 1000.2 |
| 20260508224545 | 98 | 304 | 2.0 | 0.0 | 0.00 | 0.00 | 0.00 | 6 | 1000.3 |
| 20260508224027 | 98 | 300 | 3.0 | 0.0 | 0.00 | 0.00 | 0.00 | 6 | 1000.3 |
| 20260508223502 | 98 | 182 | 6.0 | 0.0 | 0.00 | 0.00 | 0.00 | 6 | 1000.4 |
| 20260508223053 | 98 | 311 | 6.0 | 0.0 | 0.00 | 0.00 | 0.00 | 6 | 1000.5 |
| 20260508222529 | 98 | 315 | 6.0 | 0.0 | 0.00 | 0.00 | 0.00 | 6 | 1000.6 |
| 20260508222012 | 98 | 316 | 4.0 | 0.0 | 0.00 | 0.00 | 0.00 | 6 | 1000.6 |
| 20260508221559 | 99 | 224 | 2.0 | 0.0 | 0.00 | 0.00 | 0.00 | 7 | 1000.6 |
| 20260508221041 | 100 | 327 | 2.0 | 0.0 | 0.00 | 0.00 | 0.00 | 7 | 1000.4 |
| 20260508220515 | 100 | 227 | 3.0 | 0.0 | 0.00 | 0.00 | 0.00 | 6 | 1000.7 |
| 20260508220100 | 100 | 273 | 3.0 | 0.0 | 0.00 | 0.00 | 0.00 | 7 | 1000.7 |
| 20260508215535 | 100 | 227 | 4.0 | 0.0 | 0.00 | 0.00 | 0.00 | 6 | 1000.8 |
| 20260508215012 | 100 | 284 | 4.0 | 0.0 | 0.00 | 0.00 | 0.00 | 6 | 1001.0 |
| 20260508214605 | 99 | 298 | 3.0 | 0.0 | 0.00 | 0.00 | 0.00 | 6 | 1001.0 |
| 20260508214030 | 98 | 245 | 3.0 | 0.0 | 0.00 | 0.00 | 0.00 | 7 | 1001.3 |
| 20260508213509 | 97 | 355 | 4.0 | 0.0 | 0.00 | 0.00 | 0.00 | 6 | 1001.3 |
| 20260508213054 | 98 | 340 | 4.0 | 0.0 | 0.00 | 0.00 | 0.00 | 7 | 1001.4 |
| 20260508212531 | 97 | 14 | 4.0 | 0.0 | 0.00 | 0.00 | 0.00 | 7 | 1001.4 |
| 20260508212018 | 98 | 284 | 5.0 | 0.0 | 0.00 | 0.00 | 0.00 | 7 | 1001.6 |
| 20260508211601 | 99 | 325 | 2.0 | 0.0 | 0.00 | 0.00 | 0.00 | 7 | 1001.4 |
| 20260508211039 | 99 | 324 | 3.0 | 0.0 | 0.00 | 0.00 | 0.00 | 7 | 1001.5 |
| 20260508210516 | 98 | 236 | 4.0 | 0.0 | 0.00 | 0.00 | 0.00 | 7 | 1001.6 |
| 20260508205538 | 98 | 311 | 4.0 | 0.0 | 0.00 | 0.00 | 0.00 | 7 | 1002.2 |
| 20260508205021 | 98 | 288 | 2.0 | 0.0 | 0.00 | 0.00 | 0.00 | 7 | 1002.1 |
| 20260508204517 | 99 | 270 | 1.0 | 0.0 | 0.00 | 0.00 | 0.00 | 7 | 1002.1 |
| 20260508204046 | 99 | 208 | 2.0 | 0.0 | 0.00 | 0.00 | 0.00 | 7 | 1002.1 |
| 20260508203522 | 98 | 11 | 4.0 | 0.0 | 0.00 | 0.00 | 0.00 | 7 | 1002.3 |
| 20260508203004 | 97 | 308 | 6.0 | 0.0 | 0.00 | 0.00 | 0.00 | 7 | 1002.6 |
| 20260508202555 | 98 | 355 | 4.0 | 0.0 | 0.00 | 0.00 | 0.00 | 7 | 1002.6 |
| 20260508202034 | 98 | 319 | 2.0 | 0.0 | 0.00 | 0.00 | 0.00 | 8 | 1002.7 |
| 20260508201511 | 99 | 331 | 2.0 | 0.0 | 0.00 | 0.00 | 0.00 | 8 | 1002.5 |
| 20260508201054 | 100 | 92 | 1.0 | 0.0 | 0.00 | 0.00 | 0.00 | 7 | 1002.4 |
| 20260508200532 | 99 | 269 | 1.0 | 0.0 | 0.00 | 0.00 | 0.00 | 9 | 1002.6 |
| 20260508200015 | 99 | 200 | 1.0 | 0.0 | 0.00 | 0.00 | 0.00 | 7 | 1002.7 |
| 20260508195558 | 98 | 182 | 1.0 | 0.0 | 0.00 | 0.00 | 0.00 | 9 | 1002.6 |
| 20260508195041 | 97 | 360 | 0.0 | 0.0 | 0.00 | 0.00 | 0.00 | 8 | 1002.9 |
| 20260508194518 | 98 | 281 | 1.0 | 0.0 | 0.00 | 0.00 | 0.00 | 9 | 1002.9 |
| 20260508194102 | 97 | 360 | 1.0 | 0.0 | 0.00 | 0.00 | 0.00 | 9 | 1003.0 |
| 20260508193540 | 97 | 360 | 1.0 | 0.0 | 0.00 | 0.00 | 0.00 | 9 | 1003.2 |
| 20260508193017 | 96 | 113 | 1.0 | 0.0 | 0.00 | 0.00 | 0.00 | 10 | 1003.3 |
| 20260508192601 | 94 | 73 | 2.0 | 0.0 | 0.00 | 0.00 | 0.00 | 11 | 1003.6 |
| 20260508192042 | 93 | 360 | 2.0 | 0.0 | 0.00 | 0.00 | 0.00 | 9 | 1003.7 |
| 20260508191532 | 96 | 111 | 1.0 | 0.0 | 0.00 | 0.00 | 0.00 | 9 | 1003.5 |
| 20260508191005 | 95 | 74 | 1.0 | 0.0 | 0.00 | 0.00 | 0.00 | 10 | 1003.7 |
| 20260508190548 | 95 | 333 | 1.0 | 0.0 | 0.00 | 0.00 | 0.00 | 10 | 1003.9 |
| 20260508190028 | 95 | 360 | 1.0 | 0.0 | 0.00 | 0.00 | 0.00 | 9 | 1003.8 |
| 20260508185502 | 95 | 360 | 1.0 | 0.0 | 0.00 | 0.00 | 0.00 | 10 | 1003.8 |
| 20260508185043 | 94 | 96 | 1.0 | 0.0 | 0.00 | 0.00 | 0.00 | 10 | 1004.1 |
| 20260508184523 | 91 | 271 | 2.0 | 0.0 | 0.00 | 0.00 | 0.00 | 10 | 1004.3 |
| 20260508184104 | 91 | 79 | 2.0 | 0.0 | 0.00 | 0.00 | 0.00 | 11 | 1004.4 |
| 20260508183538 | 91 | 75 | 2.0 | 0.0 | 0.00 | 0.00 | 0.00 | 11 | 1004.4 |
| 20260508183015 | 91 | 96 | 2.0 | 0.0 | 0.00 | 0.00 | 0.00 | 10 | 1004.5 |
| 20260508182600 | 91 | 83 | 2.0 | 0.0 | 0.00 | 0.00 | 0.00 | 11 | 1004.5 |
| 20260508182039 | 91 | 98 | 3.0 | 0.0 | 0.00 | 0.00 | 0.00 | 11 | 1004.5 |
| 20260508181522 | 91 | 360 | 2.0 | 0.0 | 0.00 | 0.00 | 0.00 | 11 | 1004.5 |
| 20260508181005 | 93 | 360 | 1.0 | 0.0 | 0.00 | 0.00 | 0.00 | 11 | 1004.5 |
| 20260508180547 | 91 | 360 | 1.0 | 0.0 | 0.00 | 0.00 | 0.00 | 10 | 1004.6 |
| 20260508180025 | 90 | 360 | 2.0 | 0.0 | 0.00 | 0.00 | 0.00 | 11 | 1004.7 |
| 20260508175605 | 90 | 360 | 3.0 | 0.0 | 0.00 | 0.00 | 0.00 | 11 | 1004.6 |
| 20260508175041 | 90 | 360 | 3.0 | 0.0 | 0.00 | 0.00 | 0.00 | 11 | 1004.6 |
| 20260508174520 | 90 | 360 | 2.0 | 0.0 | 0.00 | 0.00 | 0.00 | 11 | 1004.7 |
| 20260508174100 | 90 | 360 | 2.0 | 0.0 | 0.00 | 0.00 | 0.00 | 11 | 1004.7 |
| 20260508173539 | 89 | 360 | 3.0 | 0.0 | 0.00 | 0.00 | 0.00 | 12 | 1004.9 |
| 20260508173019 | 88 | 360 | 3.0 | 0.0 | 0.00 | 0.00 | 0.00 | 11 | 1004.9 |
| 20260508172559 | 88 | 360 | 3.0 | 0.0 | 0.00 | 0.00 | 0.00 | 11 | 1004.9 |
| 20260508172039 | 88 | 360 | 3.0 | 0.0 | 0.00 | 0.00 | 0.00 | 11 | 1004.9 |
| 20260508171515 | 88 | 360 | 3.0 | 0.0 | 0.00 | 0.00 | 0.00 | 11 | 1005.0 |
| 20260508171056 | 88 | 360 | 2.0 | 0.0 | 0.00 | 0.00 | 0.00 | 12 | 1004.9 |
| 20260508170533 | 88 | 360 | 2.0 | 0.0 | 0.00 | 0.00 | 0.00 | 11 | 1004.9 |
| 20260508170010 | 87 | 360 | 2.0 | 0.0 | 0.00 | 0.00 | 0.00 | 12 | 1004.9 |
| 20260508165555 | 87 | 360 | 3.0 | 0.0 | 0.00 | 0.00 | 0.00 | 11 | 1004.8 |
| 20260508165027 | 86 | 360 | 3.0 | 0.0 | 0.00 | 0.00 | 0.00 | 12 | 1004.8 |